Total_Precipitation_Accumulation
1.13 1.30 1.55 1.84 2.07 2.25 2.32 2.44 2.45 2.40 2.43 2.54 2.49 2.25 2.00 1.80 1.57 1.44 1.42 1.35 1.28 1.31 1.18 0.99 0.96 1.00 0.93 0.85 0.84 0.85 0.82 0.74 0.71 0.66 0.49 0.38 0.32 0.28 0.20 0.16 0.15 0.14 0.15
0.90 1.05 1.30 1.55 1.79 2.01 2.24 2.35 2.43 2.47 2.28 2.13 2.26 2.26 2.16 1.98 1.80 1.67 1.58 1.47 1.39 1.34 1.30 1.24 1.17 1.15 1.14 1.09 1.03 1.02 0.99 0.92 0.89 0.84 0.76 0.54 0.38 0.29 0.22 0.20 0.19 0.18 0.19
0.77 0.90 1.07 1.25 1.50 1.73 1.97 2.15 2.30 2.42 2.42 2.31 2.40 2.35 2.25 2.03 1.76 1.56 1.51 1.50 1.47 1.44 1.37 1.35 1.36 1.34 1.30 1.22 1.17 1.15 1.15 1.11 1.04 1.00 1.03 0.78 0.52 0.37 0.30 0.26 0.24 0.23 0.23
0.70 0.81 0.94 1.08 1.26 1.47 1.65 1.81 2.09 2.30 2.42 2.48 2.38 2.23 2.04 1.81 1.57 1.52 1.61 1.62 1.57 1.49 1.43 1.41 1.41 1.44 1.40 1.31 1.33 1.34 1.23 1.25 1.21 1.15 1.06 0.92 0.73 0.64 0.48 0.36 0.34 0.32 0.30
0.65 0.72 0.84 0.98 1.11 1.28 1.44 1.56 1.76 2.06 2.18 2.14 2.13 2.15 2.03 1.83 1.72 1.65 1.60 1.57 1.48 1.42 1.37 1.36 1.39 1.38 1.38 1.35 1.36 1.40 1.39 1.34 1.30 1.24 1.20 1.18 1.04 0.88 0.80 0.61 0.47 0.45 0.41
0.69 0.74 0.82 0.91 0.98 1.07 1.25 1.44 1.47 1.64 1.80 1.82 1.89 1.93 1.83 1.76 1.68 1.56 1.51 1.50 1.45 1.34 1.26 1.24 1.26 1.31 1.32 1.29 1.30 1.39 1.46 1.47 1.37 1.26 1.16 1.14 1.09 0.98 0.96 0.85 0.65 0.57 0.48
0.81 0.87 0.86 0.92 0.97 1.00 1.04 1.20 1.27 1.34 1.48 1.63 1.73 1.74 1.74 1.69 1.62 1.52 1.46 1.44 1.40 1.32 1.25 1.21 1.21 1.25 1.28 1.34 1.40 1.42 1.42 1.48 1.47 1.41 1.32 1.24 1.13 1.05 1.06 1.04 0.86 0.71 0.57
0.93 0.97 0.97 1.08 1.13 1.12 1.07 1.08 1.11 1.11 1.19 1.38 1.54 1.58 1.63 1.58 1.47 1.38 1.31 1.27 1.21 1.19 1.22 1.26 1.30 1.31 1.32 1.33 1.35 1.34 1.31 1.35 1.38 1.37 1.34 1.28 1.19 1.19 1.19 1.17 1.21 1.11 0.87
0.99 1.05 1.09 1.13 1.10 1.06 1.07 1.06 1.09 1.06 1.00 1.06 1.20 1.30 1.37 1.37 1.29 1.21 1.13 1.10 1.10 1.10 1.14 1.19 1.24 1.26 1.25 1.24 1.25 1.23 1.20 1.24 1.27 1.29 1.31 1.26 1.16 1.16 1.17 1.18 1.25 1.35 1.20
0.86 0.96 0.96 0.95 0.99 1.00 0.99 1.02 1.06 1.09 1.03 0.98 1.02 1.12 1.12 1.10 1.07 1.04 0.98 0.92 0.91 0.92 0.95 1.02 1.09 1.11 1.10 1.08 1.11 1.11 1.09 1.12 1.11 1.13 1.20 1.21 1.15 1.12 1.14 1.17 1.21 1.29 1.35
0.66 0.69 0.71 0.75 0.81 0.86 0.92 0.99 1.08 1.09 0.97 0.98 1.01 1.01 1.03 1.05 0.97 0.91 0.89 0.90 0.86 0.84 0.87 0.90 0.94 0.96 0.97 0.98 0.98 0.96 0.96 0.97 0.97 0.99 1.02 1.05 1.08 1.13 1.14 1.15 1.20 1.24 1.31
0.57 0.56 0.55 0.55 0.56 0.61 0.68 0.76 0.85 0.87 0.84 0.84 0.92 0.89 0.91 0.99 0.97 0.90 0.85 0.84 0.80 0.74 0.73 0.76 0.79 0.79 0.79 0.81 0.83 0.84 0.83 0.83 0.83 0.85 0.90 0.91 0.95 1.00 1.04 1.11 1.17 1.20 1.22
0.44 0.41 0.41 0.44 0.43 0.44 0.49 0.59 0.67 0.69 0.70 0.71 0.75 0.75 0.76 0.82 0.84 0.87 0.87 0.83 0.81 0.74 0.67 0.64 0.65 0.66 0.67 0.67 0.69 0.71 0.72 0.73 0.74 0.75 0.78 0.81 0.86 0.92 0.94 0.98 1.02 1.03 1.05
0.33 0.29 0.28 0.29 0.30 0.33 0.40 0.45 0.49 0.52 0.53 0.53 0.54 0.56 0.60 0.63 0.63 0.66 0.70 0.70 0.70 0.67 0.63 0.58 0.56 0.55 0.59 0.62 0.63 0.65 0.67 0.68 0.69 0.71 0.74 0.76 0.80 0.82 0.84 0.88 0.90 0.91 0.92
0.20 0.18 0.18 0.19 0.21 0.22 0.27 0.33 0.37 0.42 0.47 0.47 0.46 0.47 0.48 0.51 0.52 0.51 0.50 0.51 0.53 0.54 0.55 0.54 0.53 0.51 0.51 0.53 0.57 0.60 0.64 0.66 0.69 0.70 0.72 0.75 0.83 0.85 0.83 0.81 0.80 0.81 0.86
0.13 0.12 0.11 0.13 0.15 0.16 0.19 0.23 0.29 0.34 0.37 0.41 0.42 0.43 0.43 0.43 0.43 0.43 0.42 0.41 0.43 0.45 0.49 0.52 0.56 0.59 0.61 0.73 0.69 0.63 0.64 0.68 0.69 0.68 0.66 0.66 0.71 0.70 0.72 0.72 0.71 0.76 0.84
0.10 0.09 0.09 0.09 0.09 0.11 0.16 0.22 0.26 0.27 0.29 0.31 0.32 0.33 0.34 0.37 0.38 0.40 0.43 0.48 0.52 0.54 0.58 0.63 0.66 0.69 0.76 0.84 0.76 0.72 0.64 0.65 0.66 0.64 0.59 0.56 0.54 0.56 0.49 0.53 0.58 0.60 0.69
0.06 0.06 0.06 0.06 0.06 0.09 0.13 0.21 0.28 0.31 0.34 0.37 0.35 0.32 0.33 0.39 0.45 0.51 0.58 0.66 0.74 0.77 0.81 0.85 0.86 0.85 0.84 0.82 0.73 0.70 0.61 0.58 0.54 0.49 0.45 0.41 0.38 0.38 0.39 0.42 0.49 0.48 0.46
0.05 0.05 0.05 0.06 0.08 0.10 0.12 0.17 0.26 0.33 0.38 0.42 0.46 0.46 0.48 0.56 0.62 0.71 0.80 0.82 0.88 0.89 0.85 0.83 0.81 0.78 0.72 0.68 0.58 0.50 0.43 0.44 0.42 0.38 0.35 0.35 0.33 0.39 0.46 0.46 0.47 0.38 0.33
0.10 0.07 0.07 0.08 0.11 0.14 0.17 0.23 0.32 0.41 0.48 0.52 0.58 0.60 0.61 0.65 0.67 0.69 0.71 0.71 0.71 0.68 0.62 0.58 0.54 0.51 0.48 0.46 0.41 0.38 0.33 0.31 0.29 0.29 0.30 0.35 0.35 0.42 0.49 0.46 0.41 0.35 0.31
0.20 0.18 0.18 0.19 0.22 0.26 0.33 0.41 0.47 0.56 0.62 0.62 0.66 0.67 0.64 0.63 0.59 0.52 0.46 0.44 0.42 0.38 0.33 0.30 0.28 0.26 0.25 0.26 0.26 0.28 0.26 0.26 0.26 0.26 0.26 0.29 0.40 0.46 0.50 0.44 0.36 0.37 0.41
0.20 0.25 0.28 0.29 0.30 0.36 0.44 0.51 0.56 0.58 0.55 0.49 0.45 0.43 0.37 0.34 0.31 0.27 0.25 0.24 0.24 0.23 0.22 0.19 0.17 0.15 0.14 0.15 0.17 0.20 0.24 0.27 0.25 0.24 0.24 0.28 0.40 0.43 0.41 0.39 0.39 0.44 0.43
0.09 0.13 0.18 0.22 0.22 0.23 0.26 0.29 0.28 0.25 0.23 0.19 0.17 0.16 0.15 0.15 0.15 0.15 0.14 0.14 0.15 0.16 0.15 0.15 0.15 0.14 0.13 0.15 0.19 0.21 0.25 0.30 0.29 0.26 0.29 0.33 0.34 0.33 0.33 0.37 0.42 0.42 0.37
0.07 0.06 0.07 0.08 0.08 0.07 0.07 0.07 0.07 0.07 0.08 0.08 0.09 0.09 0.09 0.10 0.10 0.10 0.10 0.11 0.12 0.14 0.15 0.16 0.16 0.16 0.16 0.16 0.19 0.24 0.27 0.31 0.32 0.31 0.31 0.30 0.29 0.30 0.31 0.33 0.36 0.37 0.38
0.06 0.07 0.08 0.08 0.08 0.08 0.08 0.07 0.07 0.07 0.07 0.08 0.09 0.10 0.11 0.12 0.13 0.13 0.13 0.15 0.16 0.19 0.21 0.21 0.21 0.22 0.22 0.21 0.29 0.34 0.34 0.36 0.39 0.40 0.35 0.32 0.31 0.31 0.30 0.30 0.32 0.34 0.38
0.06 0.07 0.08 0.10 0.10 0.09 0.08 0.09 0.09 0.09 0.10 0.10 0.10 0.11 0.12 0.13 0.14 0.15 0.15 0.18 0.19 0.21 0.23 0.23 0.24 0.23 0.25 0.29 0.35 0.37 0.39 0.42 0.49 0.52 0.41 0.33 0.31 0.32 0.31 0.32 0.34 0.37 0.41